Location: Alafon
(8.4500°N, 4.2333°E)
Time: 20:41:51
(UTC+00:00)

Vanguard 2 - Pass Details

Date: 04 August 2021
Orbit: 553 x 2937 km, 32.9° (Epoch: 27 September)

Event Time Altitude Azimuth Distance (km) Brightness Sun altitude
Rises 22:53:29 0° 227° (SW) 5,094 - -61.1°
Reaches altitude 10° 22:57:36 10° 223° (SW) 3,691 - -61.6°
Maximum altitude 23:06:03 51° 149° (SSE) 1,261 - -62.4°
Drops below altitude 10° 23:11:16 10° 73° (ENE) 2,311 - -62.9°
Sets 23:13:19 0° 68° (ENE) 3,064 - -63.1°
